Wind_Speed
19 19 18 18 18 18 19 18 16 15 14 14 15 15 16 17 16 16 15 13 12 11 12 12 11 11 11 11 10 9 9 8 8 8 9 9 9 8 9 9 9 8 8 9
19 18 17 18 19 18 19 18 16 15 15 16 17 16 17 18 17 16 15 15 14 13 13 12 12 11 11 11 10 9 9 9 9 9 9 9 9 9 9 9 9 9 8 9
17 17 18 19 19 19 19 18 17 17 18 19 18 18 17 18 18 17 17 17 17 16 14 13 12 12 12 11 11 10 10 10 10 10 10 9 9 8 9 9 9 9 8 9
18 19 20 20 20 20 19 17 17 18 20 20 20 20 18 17 17 17 17 18 19 18 17 15 13 13 12 11 11 11 11 11 11 10 10 10 9 9 9 10 10 10 10 10
18 19 20 20 19 20 20 19 19 20 21 21 20 21 18 18 18 17 18 19 20 19 17 15 14 13 13 12 12 12 12 11 11 11 10 10 9 9 10 10 10 10 10 10
18 19 20 20 20 21 21 21 20 21 22 22 21 22 20 18 18 17 18 18 19 18 18 17 15 15 14 14 13 13 13 12 11 11 11 11 10 10 10 10 10 10 10 11
19 19 19 20 21 22 22 22 22 23 24 22 20 23 20 17 19 19 19 19 19 19 19 18 16 15 15 15 14 14 13 13 12 12 12 11 11 11 11 11 11 10 11 11
20 20 19 20 21 21 22 22 23 24 24 22 21 23 20 18 19 21 21 20 21 20 19 18 17 16 14 14 15 15 14 13 13 12 12 12 12 11 11 11 11 11 11 12
20 20 20 20 20 20 22 23 22 24 24 24 23 22 20 19 19 21 21 21 21 20 18 18 18 17 16 16 16 16 15 15 14 13 13 13 13 12 11 11 12 11 11 11
21 22 21 21 21 22 22 22 23 24 25 25 24 23 22 20 20 20 21 21 21 20 20 19 19 18 18 17 17 17 17 16 15 14 14 14 13 12 12 12 12 12 12 12
22 23 22 22 22 23 23 24 25 26 27 27 26 25 23 22 21 20 20 21 21 21 20 20 20 20 21 20 19 18 18 18 17 16 15 15 14 14 13 13 13 13 13 12
24 24 24 23 22 23 24 25 26 27 28 28 28 26 23 23 23 23 22 21 22 23 21 21 21 21 21 21 20 20 19 19 18 17 17 17 16 15 15 15 14 14 14 14
24 25 25 23 23 24 25 26 27 27 27 27 28 27 24 24 22 22 22 22 22 23 23 23 22 22 22 23 23 23 21 20 20 19 18 18 17 17 17 17 16 16 16 15
25 25 25 25 24 25 26 27 28 28 28 28 28 26 25 25 24 23 23 23 23 23 23 24 23 23 23 24 24 23 23 22 21 20 20 20 20 19 19 19 19 18 18 17
25 26 25 26 25 26 27 27 28 28 29 29 28 26 24 25 26 24 25 25 23 22 23 23 24 24 24 24 24 24 24 23 23 22 22 21 21 20 20 19 19 19 18 18
25 25 25 24 25 25 26 26 27 27 28 27 28 27 25 25 25 24 24 25 25 23 23 23 23 23 23 23 23 23 24 24 23 22 22 22 21 21 21 20 19 20 20 20
23 24 24 23 24 25 25 25 26 26 26 27 26 25 25 25 23 23 24 23 24 24 23 22 23 23 23 24 24 24 24 24 23 23 23 22 22 22 22 20 20 19 20 21
22 23 23 23 23 25 24 24 26 26 26 26 25 25 25 25 24 25 24 23 23 23 23 23 24 24 25 25 26 26 25 24 24 24 24 24 24 23 23 23 21 20 21 21
22 22 23 23 23 24 23 24 26 26 26 26 26 26 25 25 25 25 24 24 24 23 23 23 23 24 25 25 25 26 26 25 25 25 24 23 23 22 22 24 23 22 23 23
22 23 23 23 24 24 21 23 25 25 26 26 26 26 25 25 26 26 24 23 24 24 23 24 24 23 23 24 25 26 26 25 25 25 25 24 24 24 23 24 26 25 25 24
21 22 22 23 23 22 21 21 23 25 25 25 26 25 25 25 26 25 25 25 24 24 24 24 24 25 25 25 24 24 25 24 24 24 24 25 26 25 25 25 26 26 26 25
20 21 22 23 23 22 22 22 22 24 24 24 25 25 25 25 27 27 26 24 25 25 24 24 25 25 25 25 24 24 24 24 25 26 25 25 26 26 26 26 26 27 27 26
20 20 21 21 21 21 22 22 22 23 24 24 24 24 25 25 26 26 26 25 26 25 24 24 25 25 24 24 24 25 26 26 26 27 26 26 26 25 26 27 26 27 27 26
20 20 20 20 20 20 21 22 22 22 22 22 22 24 25 25 25 26 25 24 24 24 25 25 25 25 25 24 24 25 26 27 28 28 27 27 27 27 27 27 27 27 26 26
19 19 19 19 19 20 19 21 22 23 23 24 23 24 25 26 26 26 26 25 24 24 25 25 25 25 25 25 25 25 26 27 28 28 28 28 28 29 29 28 27 26 26 27
19 19 19 19 19 19 19 19 21 22 23 24 25 24 24 25 26 25 23 23 24 26 26 25 26 26 26 26 26 26 26 27 26 26 27 28 28 29 28 27 27 27 26 27
Wind_Direction
227 225 222 223 223 224 229 232 234 234 238 247 256 259 261 262 263 270 274 273 277 282 285 289 290 288 290 290 289 293 293 294 300 309 317 320 323 321 321 321 322 325 326 326
226 223 220 220 222 225 230 235 238 239 241 245 250 257 257 258 260 266 271 275 278 282 284 285 288 289 287 287 287 286 288 290 293 301 306 310 313 315 316 314 316 320 321 322
228 223 221 223 225 228 230 235 239 243 243 247 251 253 255 256 259 264 266 271 276 278 278 282 285 287 284 278 280 280 281 285 289 294 298 303 307 307 309 312 313 315 315 316
228 225 226 226 229 233 236 239 242 246 248 248 249 255 255 256 261 268 270 270 273 275 275 276 279 283 281 277 275 278 279 280 283 288 295 297 301 301 303 304 306 306 305 307
232 230 231 233 234 237 241 243 244 246 247 248 249 256 257 258 261 266 270 270 271 269 269 273 277 279 277 275 274 274 275 276 278 282 289 293 296 296 298 301 304 304 303 303
232 231 235 238 237 239 242 244 246 248 247 247 248 255 256 259 263 264 268 269 270 266 268 270 272 274 272 272 273 274 274 274 276 278 284 287 288 290 292 296 301 302 302 307
234 234 239 242 241 241 243 244 245 246 245 247 247 251 256 256 259 262 264 268 271 268 264 263 263 266 265 268 271 272 274 275 276 277 280 282 282 284 286 292 296 296 298 305
237 235 239 245 247 249 246 246 249 251 251 250 248 250 254 251 254 255 258 262 264 267 267 263 263 260 262 269 273 271 274 279 279 275 276 277 278 280 282 288 292 296 301 303
239 236 236 242 246 246 245 247 251 253 252 253 250 252 252 250 253 254 256 259 262 262 264 264 261 256 260 267 273 273 274 274 274 270 271 273 273 275 277 282 286 290 294 300
243 243 238 239 240 243 244 244 247 251 252 254 254 255 255 252 254 255 257 261 264 261 263 262 262 261 261 265 269 270 270 269 269 270 270 268 268 271 275 278 281 284 289 295
246 246 241 239 238 242 243 242 246 250 252 255 257 255 255 255 253 258 261 263 260 263 268 267 264 264 263 264 264 264 266 268 267 266 266 264 264 267 272 273 278 283 288 291
249 250 245 242 242 242 244 244 246 249 250 253 257 255 252 255 254 255 258 261 262 263 265 266 264 266 264 263 262 262 263 265 266 265 264 263 259 263 268 270 272 277 281 285
250 251 250 244 243 242 241 242 245 249 250 251 255 256 253 252 251 254 255 257 259 262 264 265 263 260 263 262 261 262 260 263 266 266 266 266 258 258 264 267 269 271 276 280
252 252 250 246 244 244 242 241 243 246 248 252 255 257 253 251 252 255 258 258 260 262 262 265 263 261 262 262 263 262 262 263 264 264 265 266 263 263 263 263 265 267 270 275
253 253 250 248 245 245 245 245 245 248 250 251 253 255 255 252 254 257 259 258 258 259 263 265 262 260 261 264 265 265 263 263 265 262 262 264 264 265 266 264 263 266 268 271
252 253 253 252 249 247 246 246 248 251 252 254 255 255 256 257 255 253 256 256 256 258 262 263 261 260 262 265 265 265 263 264 265 265 266 263 266 264 267 263 263 265 266 269
254 253 252 251 250 248 247 248 250 250 252 254 254 254 254 254 253 251 252 253 255 258 259 261 263 260 261 263 265 264 264 264 265 265 265 266 266 265 262 264 267 265 266 269
255 255 255 255 252 249 249 249 250 249 251 251 252 252 250 249 251 251 251 251 254 257 261 263 262 261 261 262 265 265 263 264 264 264 265 266 265 265 263 263 266 265 265 268
254 254 257 257 255 255 252 250 251 251 251 250 250 250 251 249 252 253 253 256 257 261 263 266 267 263 261 260 264 265 264 265 264 263 265 263 265 267 267 264 263 265 266 267
254 253 257 259 259 258 254 248 249 252 253 252 252 253 253 252 254 255 255 257 260 262 264 266 268 267 263 262 264 263 261 263 263 264 265 265 265 266 269 267 264 266 266 264
254 256 257 259 260 260 255 250 250 251 252 252 253 253 255 256 256 257 258 259 260 261 264 266 269 269 265 262 260 260 258 260 262 264 267 267 267 266 269 269 267 266 266 266
256 257 258 258 259 260 257 255 254 252 251 252 252 253 256 258 259 260 260 260 263 264 267 269 271 270 268 263 259 259 259 260 262 264 267 269 268 268 268 268 268 267 267 268
258 258 260 261 265 265 261 259 258 257 254 252 253 253 255 258 263 263 264 265 265 269 271 271 273 271 269 266 264 264 263 262 262 264 266 268 267 267 269 268 269 270 269 270
260 260 263 264 266 265 262 260 257 257 256 254 255 255 255 258 262 266 267 267 268 269 272 271 273 271 269 266 265 265 265 264 264 265 265 265 265 266 268 268 268 268 269 269
263 263 263 266 268 268 265 260 256 255 256 258 259 259 258 257 260 263 267 267 269 272 273 273 271 271 270 266 266 267 267 266 264 263 263 263 263 265 266 266 267 268 268 269
263 264 266 268 271 270 266 265 258 256 256 258 259 261 262 260 260 262 263 266 269 269 270 271 273 273 272 270 270 271 269 266 266 265 264 265 266 266 265 266 266 266 268 269
Height
5864 5867 5869 5871 5873 5875 5876 5877 5879 5880 5880 5880 5881 5882 5883 5883 5883 5884 5885 5885 5886 5887 5887 5887 5886 5885 5884 5884 5884 5883 5883 5882 5882 5881 5880 5879 5878 5877 5876 5875 5874 5873 5872 5871
5861 5864 5866 5867 5869 5870 5872 5873 5875 5877 5877 5877 5877 5878 5879 5879 5879 5881 5881 5882 5883 5883 5883 5884 5883 5882 5882 5881 5881 5881 5881 5880 5879 5878 5878 5877 5876 5874 5873 5872 5871 5871 5870 5869
5857 5861 5861 5863 5864 5866 5868 5870 5871 5872 5873 5873 5873 5874 5875 5875 5875 5877 5878 5879 5880 5880 5880 5880 5880 5879 5879 5878 5878 5878 5878 5877 5876 5875 5875 5874 5873 5872 5871 5870 5869 5869 5868 5867
5853 5855 5857 5858 5860 5862 5864 5866 5867 5868 5869 5869 5870 5869 5871 5871 5871 5872 5873 5874 5875 5876 5877 5877 5876 5876 5876 5875 5875 5875 5875 5874 5873 5872 5872 5871 5870 5869 5869 5868 5867 5866 5865 5865
5849 5851 5852 5854 5856 5857 5859 5861 5862 5863 5864 5865 5866 5865 5867 5867 5868 5869 5869 5870 5870 5871 5872 5873 5873 5872 5872 5872 5872 5872 5872 5871 5870 5869 5868 5868 5867 5867 5866 5865 5864 5864 5863 5862
5845 5846 5848 5850 5851 5852 5854 5856 5857 5858 5859 5860 5861 5861 5862 5863 5864 5865 5865 5865 5865 5866 5868 5868 5868 5869 5869 5868 5868 5868 5868 5867 5867 5866 5865 5865 5864 5864 5863 5862 5861 5861 5860 5859
5839 5842 5843 5844 5846 5847 5849 5851 5852 5852 5853 5854 5856 5855 5857 5859 5859 5860 5860 5860 5861 5862 5863 5863 5863 5864 5864 5864 5864 5864 5863 5863 5863 5862 5862 5861 5861 5860 5860 5859 5858 5857 5857 5856
5833 5836 5838 5839 5841 5843 5844 5845 5847 5848 5848 5850 5851 5850 5853 5854 5854 5854 5855 5855 5856 5856 5857 5858 5859 5860 5860 5860 5859 5859 5858 5859 5859 5859 5858 5857 5857 5857 5856 5856 5855 5854 5854 5853
5828 5831 5833 5834 5836 5838 5838 5840 5842 5843 5843 5843 5844 5846 5848 5849 5848 5849 5849 5850 5850 5850 5851 5852 5854 5855 5855 5855 5855 5855 5855 5855 5854 5854 5854 5854 5853 5853 5852 5852 5851 5851 5851 5850
5822 5825 5827 5829 5830 5832 5833 5835 5836 5836 5836 5836 5838 5840 5842 5843 5843 5843 5843 5844 5845 5846 5847 5847 5848 5850 5850 5850 5851 5851 5851 5850 5850 5850 5850 5849 5849 5849 5849 5848 5847 5847 5847 5847
5817 5819 5822 5823 5825 5826 5828 5829 5829 5830 5830 5831 5832 5836 5837 5837 5838 5838 5838 5838 5839 5840 5841 5842 5843 5844 5845 5846 5845 5846 5846 5846 5846 5845 5845 5845 5845 5845 5845 5844 5844 5844 5843 5843
5812 5813 5815 5818 5820 5821 5822 5823 5823 5824 5825 5825 5826 5831 5830 5831 5831 5832 5833 5833 5834 5835 5835 5836 5837 5838 5839 5840 5840 5840 5840 5841 5841 5840 5841 5840 5839 5840 5840 5840 5840 5840 5840 5839
5806 5807 5809 5811 5815 5815 5815 5816 5816 5817 5818 5818 5819 5824 5824 5824 5825 5825 5826 5826 5827 5828 5829 5830 5831 5832 5833 5833 5834 5833 5833 5835 5836 5836 5835 5835 5834 5834 5835 5835 5835 5835 5835 5835
5800 5801 5803 5805 5805 5806 5807 5809 5809 5810 5811 5811 5813 5816 5818 5818 5819 5819 5820 5820 5821 5822 5823 5823 5824 5825 5826 5827 5827 5827 5828 5829 5829 5830 5830 5830 5829 5829 5830 5829 5829 5830 5830 5830
5794 5795 5796 5797 5799 5799 5800 5802 5803 5804 5804 5805 5807 5809 5812 5812 5813 5813 5814 5814 5815 5815 5816 5817 5818 5819 5820 5820 5820 5821 5822 5822 5823 5823 5823 5823 5824 5824 5823 5823 5823 5824 5824 5825
5787 5788 5789 5791 5792 5792 5793 5795 5796 5797 5798 5799 5801 5803 5805 5806 5806 5807 5808 5808 5809 5809 5810 5811 5811 5812 5813 5813 5814 5814 5815 5816 5816 5816 5816 5815 5816 5817 5817 5816 5817 5818 5818 5819
5780 5781 5783 5784 5785 5785 5788 5789 5789 5790 5791 5792 5794 5797 5798 5799 5800 5801 5802 5802 5802 5803 5804 5804 5805 5805 5806 5806 5807 5807 5808 5808 5809 5810 5810 5809 5810 5811 5811 5811 5810 5811 5813 5813
5774 5775 5776 5777 5779 5779 5783 5782 5783 5784 5784 5785 5787 5789 5790 5792 5793 5794 5795 5795 5796 5796 5796 5797 5797 5798 5798 5799 5799 5800 5801 5802 5803 5803 5803 5803 5804 5804 5804 5804 5804 5806 5806 5807
5768 5769 5770 5771 5771 5773 5775 5776 5776 5776 5777 5779 5780 5782 5783 5785 5786 5787 5787 5788 5789 5790 5790 5790 5790 5790 5791 5791 5792 5793 5794 5795 5795 5796 5796 5797 5797 5797 5797 5797 5797 5799 5800 5800
5762 5763 5764 5764 5765 5766 5769 5769 5769 5771 5771 5772 5773 5775 5777 5778 5780 5781 5781 5781 5782 5782 5783 5783 5783 5783 5784 5784 5785 5786 5787 5788 5788 5789 5789 5790 5791 5791 5791 5791 5791 5791 5792 5792
5756 5757 5757 5758 5758 5759 5762 5762 5763 5765 5766 5766 5767 5768 5770 5772 5773 5774 5774 5775 5775 5775 5776 5776 5777 5777 5777 5777 5778 5779 5780 5780 5781 5782 5782 5783 5783 5784 5784 5784 5783 5784 5785 5784
5750 5751 5752 5752 5753 5756 5755 5756 5756 5757 5758 5759 5760 5762 5764 5765 5766 5766 5767 5767 5767 5767 5769 5770 5769 5769 5769 5770 5770 5771 5772 5773 5774 5774 5775 5775 5776 5776 5776 5776 5776 5777 5777 5777
5745 5746 5746 5747 5749 5749 5748 5749 5749 5750 5751 5753 5754 5755 5757 5758 5759 5759 5760 5760 5760 5760 5761 5762 5762 5762 5762 5761 5762 5763 5764 5765 5766 5766 5767 5767 5768 5768 5768 5768 5769 5769 5769 5769
5740 5740 5740 5741 5741 5742 5742 5742 5743 5744 5745 5746 5748 5749 5750 5751 5752 5752 5752 5753 5753 5754 5754 5754 5755 5755 5754 5754 5755 5755 5756 5756 5757 5757 5758 5759 5760 5760 5760 5760 5760 5761 5761 5761
5734 5734 5735 5735 5735 5736 5736 5735 5736 5738 5738 5739 5741 5742 5743 5744 5744 5745 5745 5746 5746 5746 5747 5746 5747 5747 5747 5746 5747 5747 5747 5747 5748 5748 5750 5750 5751 5752 5752 5752 5752 5752 5753 5753
5728 5728 5729 5729 5730 5730 5730 5729 5730 5731 5732 5733 5734 5735 5736 5736 5737 5737 5737 5738 5738 5738 5739 5739 5739 5739 5738 5738 5738 5738 5739 5739 5739 5740 5741 5741 5742 5743 5743 5744 5744 5744 5745 5745